This is the latest recevied weather packets stored in our database for station/object W7TTE. If no packets are shown the sender has not sent any weather packets the latest 10 day(s).
| Time | Temp. | Humidity | Pressure | Rain* | Wind** | Luminosity | Snow |
|---|---|---|---|---|---|---|---|
| 1777998494 | 21.11° C | 40% | 1014.5 hPa | 0 mm | - | 566 W/m² | - |
| 1777998189 | 20.56° C | 41% | 1014.4 hPa | 0 mm | - | 167 W/m² | - |
| 1777997887 | 21.11° C | 41% | 1014.4 hPa | 0 mm | - | 192 W/m² | - |
| 1777997281 | 20° C | 41% | 1014.5 hPa | 0 mm | - | 185 W/m² | - |
| 1777996675 | 20° C | 42% | 1014.4 hPa | 0 mm | - | 192 W/m² | - |
| 1777995765 | 20° C | 42% | 1014.3 hPa | 0 mm | - | 224 W/m² | - |
| 1777995461 | 19.44° C | 43% | 1014.2 hPa | 0 mm | - | 151 W/m² | - |
| 1777995159 | 19.44° C | 44% | 1014.5 hPa | 0 mm | - | 120 W/m² | - |
| 1777994856 | 19.44° C | 45% | 1014.3 hPa | 0 mm | - | 123 W/m² | - |
| 1777994552 | 19.44° C | 44% | 1014.4 hPa | 0 mm | - | 164 W/m² | - |
| 1777994252 | 19.44° C | 45% | 1014.6 hPa | 0 mm | - | 112 W/m² | - |
| 1777993646 | 19.44° C | 44% | 1014.4 hPa | 0 mm | - | 120 W/m² | - |
| 1777993344 | 19.44° C | 44% | 1014.3 hPa | 0 mm | - | 191 W/m² | - |
| 1777991834 | 18.89° C | 48% | 1014 hPa | 0 mm | - | 121 W/m² | - |
| 1777991228 | 18.89° C | 50% | 1014.1 hPa | 0 mm | - | 128 W/m² | - |
| 1777990926 | 18.89° C | 50% | 1014.1 hPa | 0 mm | - | 127 W/m² | - |
| 1777990624 | 18.89° C | 51% | 1014.1 hPa | 0 mm | - | 94 W/m² | - |
| 1777990320 | 18.89° C | 52% | 1013.9 hPa | 0 mm | - | 61 W/m² | - |
| 1777990016 | 18.33° C | 51% | 1014.1 hPa | 0 mm | - | 59 W/m² | - |
| 1777988197 | 17.78° C | 59% | 1013.7 hPa | 0 mm | - | 47 W/m² | - |
| 1777987893 | 17.78° C | 59% | 1014 hPa | 0 mm | - | 30 W/m² | - |
| 1777987589 | 17.22° C | 60% | 1014 hPa | 0 mm | - | 27 W/m² | - |
| 1777987287 | 17.22° C | 60% | 1013.9 hPa | 0 mm | - | 25 W/m² | - |
| 1777986983 | 17.22° C | 60% | 1013.6 hPa | 0 mm | - | 19 W/m² | - |
| 1777984559 | 17.78° C | 61% | 1013.4 hPa | 0 mm | - | 2 W/m² | - |
* Rain latest hour (hover to see other rain measurements)
** Current wind speed in m/s (hover to see current wind gust speed)